TimeEST,TemperatureF,Dew PointF,Humidity,Sea Level PressureIn,VisibilityMPH,Wind Direction,Wind SpeedMPH,Gust SpeedMPH,PrecipitationIn,Events,Conditions,WindDirDegrees,DateUTC
12:15 AM,23.0,21.2,93,30.02,8.0,North,-9999.0,-,N/A,,Overcast,0,2013-02-03 05:15:00
12:40 AM,23.0,21.2,93,30.01,3.0,North,-9999.0,-,0.01,,Overcast,0,2013-02-03 05:40:00
12:55 AM,23.0,21.2,93,30.00,9.0,North,-9999.0,-,0.01,,Overcast,0,2013-02-03 05:55:00
1:15 AM,23.0,21.2,93,29.99,7.0,North,-9999.0,-,N/A,,Overcast,0,2013-02-03 06:15:00
1:35 AM,23.0,21.2,93,29.99,10.0,North,-9999.0,-,N/A,,Overcast,0,2013-02-03 06:35:00
1:55 AM,23.0,21.2,93,29.98,10.0,North,-9999.0,-,N/A,,Overcast,0,2013-02-03 06:55:00
2:15 AM,23.0,21.2,93,29.97,10.0,North,-9999.0,-,N/A,,Overcast,0,2013-02-03 07:15:00
2:35 AM,23.0,21.2,93,29.96,10.0,North,-9999.0,-,N/A,,Overcast,0,2013-02-03 07:35:00
2:55 AM,23.0,21.2,93,29.95,9.0,North,-9999.0,-,N/A,,Overcast,0,2013-02-03 07:55:00
3:15 AM,23.0,21.2,93,29.94,10.0,North,-9999.0,-,N/A,,Overcast,0,2013-02-03 08:15:00
3:35 AM,23.0,21.2,93,29.94,10.0,North,-9999.0,-,N/A,,Overcast,0,2013-02-03 08:35:00
3:55 AM,23.0,21.2,93,29.93,10.0,North,-9999.0,-,N/A,,Overcast,0,2013-02-03 08:55:00
4:15 AM,23.0,19.4,86,29.92,9.0,North,-9999.0,-,N/A,,Overcast,0,2013-02-03 09:15:00
4:55 AM,21.2,19.4,93,29.92,10.0,North,-9999.0,-,N/A,,Overcast,0,2013-02-03 09:55:00
5:15 AM,21.2,19.4,93,29.91,8.0,North,-9999.0,-,N/A,,Overcast,0,2013-02-03 10:15:00
5:35 AM,21.2,19.4,93,29.92,8.0,North,-9999.0,-,N/A,,Overcast,0,2013-02-03 10:35:00
5:55 AM,19.4,19.4,100,29.91,7.0,North,-9999.0,-,N/A,,Mostly Cloudy,0,2013-02-03 10:55:00
6:15 AM,17.6,17.6,100,29.91,5.0,North,-9999.0,-,N/A,,Partly Cloudy,0,2013-02-03 11:15:00
6:35 AM,15.8,15.8,100,29.92,7.0,North,-9999.0,-,N/A,,Clear,0,2013-02-03 11:35:00
6:55 AM,15.8,14.0,93,29.92,2.5,North,-9999.0,-,N/A,,Clear,0,2013-02-03 11:55:00
7:15 AM,15.8,14.0,93,29.92,5.0,North,-9999.0,-,N/A,,Clear,0,2013-02-03 12:15:00
7:35 AM,14.0,12.2,93,29.93,6.0,North,-9999.0,-,N/A,,Partly Cloudy,0,2013-02-03 12:35:00
7:55 AM,14.0,12.2,93,29.93,5.0,North,-9999.0,-,N/A,,Clear,0,2013-02-03 12:55:00
8:15 AM,15.8,14.0,93,29.94,5.0,North,-9999.0,-,N/A,,Mostly Cloudy,0,2013-02-03 13:15:00
8:35 AM,19.4,17.6,93,29.94,2.5,North,-9999.0,-,N/A,,Overcast,0,2013-02-03 13:35:00
8:55 AM,19.4,19.4,100,29.94,3.0,North,-9999.0,-,N/A,,Overcast,0,2013-02-03 13:55:00
9:15 AM,21.2,19.4,93,29.93,4.0,North,-9999.0,-,N/A,,Overcast,0,2013-02-03 14:15:00
9:35 AM,23.0,19.4,86,29.93,9.0,North,-9999.0,-,N/A,,Overcast,0,2013-02-03 14:35:00
9:55 AM,23.0,21.2,93,29.92,10.0,North,-9999.0,-,N/A,,Overcast,0,2013-02-03 14:55:00
10:15 AM,23.0,19.4,86,29.92,10.0,North,-9999.0,-,N/A,,Overcast,0,2013-02-03 15:15:00
10:35 AM,23.0,19.4,86,29.92,10.0,North,-9999.0,-,N/A,,Overcast,0,2013-02-03 15:35:00
10:55 AM,23.0,19.4,86,29.91,10.0,North,-9999.0,-,N/A,,Overcast,0,2013-02-03 15:55:00
11:15 AM,24.8,19.4,80,29.90,10.0,North,-9999.0,-,N/A,,Overcast,0,2013-02-03 16:15:00
11:35 AM,24.8,19.4,80,29.89,10.0,North,-9999.0,-,N/A,,Overcast,0,2013-02-03 16:35:00
11:55 AM,24.8,19.4,80,29.88,10.0,North,-9999.0,-,N/A,,Overcast,0,2013-02-03 16:55:00
12:15 PM,24.8,19.4,80,29.87,10.0,North,-9999.0,-,N/A,,Overcast,0,2013-02-03 17:15:00
12:35 PM,24.8,19.4,80,29.85,10.0,North,-9999.0,-,N/A,,Overcast,0,2013-02-03 17:35:00
12:55 PM,24.8,19.4,80,29.84,10.0,North,-9999.0,-,N/A,,Overcast,0,2013-02-03 17:55:00
1:15 PM,26.6,19.4,74,29.84,10.0,North,-9999.0,-,N/A,,Scattered Clouds,0,2013-02-03 18:15:00
1:35 PM,24.8,19.4,80,29.83,10.0,North,-9999.0,-,N/A,,Partly Cloudy,0,2013-02-03 18:35:00
1:55 PM,28.4,19.4,69,29.82,10.0,North,-9999.0,-,N/A,,Partly Cloudy,0,2013-02-03 18:55:00
2:15 PM,26.6,19.4,74,29.82,10.0,North,-9999.0,-,N/A,,Mostly Cloudy,0,2013-02-03 19:15:00
2:35 PM,28.4,19.4,69,29.81,10.0,North,-9999.0,-,N/A,,Partly Cloudy,0,2013-02-03 19:35:00
2:55 PM,28.4,19.4,69,29.81,10.0,North,-9999.0,-,N/A,,Partly Cloudy,0,2013-02-03 19:55:00
3:15 PM,28.4,19.4,69,29.81,10.0,North,-9999.0,-,N/A,,Clear,0,2013-02-03 20:15:00
3:35 PM,28.4,19.4,69,29.80,10.0,North,-9999.0,-,N/A,,Clear,0,2013-02-03 20:35:00
3:55 PM,28.4,19.4,69,29.80,10.0,North,-9999.0,-,N/A,,Clear,0,2013-02-03 20:55:00
4:15 PM,28.4,19.4,69,29.80,10.0,North,-9999.0,-,N/A,,Clear,0,2013-02-03 21:15:00
4:35 PM,28.4,19.4,69,29.80,10.0,North,-9999.0,-,N/A,,Clear,0,2013-02-03 21:35:00
4:55 PM,28.4,19.4,69,29.80,10.0,North,-9999.0,-,N/A,,Clear,0,2013-02-03 21:55:00
5:35 PM,26.6,19.4,74,29.80,10.0,North,-9999.0,-,N/A,,Clear,0,2013-02-03 22:35:00
5:55 PM,26.6,19.4,74,29.80,10.0,North,-9999.0,-,N/A,,Clear,0,2013-02-03 22:55:00
6:15 PM,24.8,19.4,80,29.80,10.0,North,-9999.0,-,N/A,,Clear,0,2013-02-03 23:15:00
6:35 PM,24.8,19.4,80,29.80,10.0,North,-9999.0,-,N/A,,Clear,0,2013-02-03 23:35:00
6:55 PM,23.0,19.4,86,29.81,10.0,North,-9999.0,-,N/A,,Clear,0,2013-02-03 23:55:00
7:15 PM,21.2,17.6,86,29.81,10.0,North,-9999.0,-,N/A,,Mostly Cloudy,0,2013-02-04 00:15:00
7:35 PM,23.0,19.4,86,29.82,10.0,North,-9999.0,-,N/A,,Overcast,0,2013-02-04 00:35:00
7:55 PM,23.0,19.4,86,29.81,9.0,North,-9999.0,-,N/A,,Overcast,0,2013-02-04 00:55:00
8:15 PM,23.0,19.4,86,29.81,7.0,North,-9999.0,-,N/A,,Mostly Cloudy,0,2013-02-04 01:15:00
8:35 PM,23.0,19.4,86,29.81,10.0,North,-9999.0,-,N/A,,Overcast,0,2013-02-04 01:35:00
8:55 PM,24.8,19.4,80,29.81,7.0,North,-9999.0,-,N/A,,Overcast,0,2013-02-04 01:55:00
9:15 PM,24.8,21.2,86,29.81,8.0,North,-9999.0,-,N/A,,Mostly Cloudy,0,2013-02-04 02:15:00
9:35 PM,24.8,21.2,86,29.82,7.0,North,-9999.0,-,N/A,,Overcast,0,2013-02-04 02:35:00
9:55 PM,26.6,23.0,86,29.82,3.0,North,-9999.0,-,N/A,,Overcast,0,2013-02-04 02:55:00
10:15 PM,26.6,23.0,86,29.82,4.0,North,-9999.0,-,N/A,,Overcast,0,2013-02-04 03:15:00
10:35 PM,26.6,23.0,86,29.82,3.0,North,-9999.0,-,N/A,,Mostly Cloudy,0,2013-02-04 03:35:00
10:55 PM,26.6,23.0,86,29.83,7.0,North,-9999.0,-,N/A,,Mostly Cloudy,0,2013-02-04 03:55:00
11:15 PM,26.6,19.4,74,29.83,10.0,North,-9999.0,-,N/A,,Mostly Cloudy,0,2013-02-04 04:15:00
11:35 PM,26.6,17.6,69,29.84,10.0,North,-9999.0,-,N/A,,Overcast,0,2013-02-04 04:35:00
11:55 PM,26.6,15.8,64,29.85,10.0,North,-9999.0,-,N/A,,Overcast,0,2013-02-04 04:55:00